| time (UTC) | temp F | wind direction | speed knots | gust knots | rain 1hr in | rain 24hr in | rain mn in | humidity % | barometer mb |
| 20260906095526 | 93 | 279 | 6.1 | 11.3 | 0.00 | 0.00 | 0.00 | 34 | 1018.1 |
| 20260906094526 | 92 | 286 | 7.0 | 9.6 | 0.00 | 0.00 | 0.00 | 35 | 1018.2 |
| 20260906093525 | 92 | 282 | 6.1 | 10.4 | 0.00 | 0.00 | 0.00 | 35 | 1018.2 |
| 20260906092527 | 92 | 291 | 6.1 | 9.6 | 0.00 | 0.00 | 0.00 | 36 | 1018.3 |
| 20260906091525 | 91 | 277 | 6.1 | 11.3 | 0.00 | 0.00 | 0.00 | 36 | 1018.3 |
| 20260906090525 | 91 | 282 | 5.2 | 7.8 | 0.00 | 0.00 | 0.00 | 36 | 1018.2 |
| 20260906085526 | 91 | 289 | 5.2 | 9.6 | 0.00 | 0.00 | 0.00 | 36 | 1018.3 |
| 20260906084526 | 90 | 277 | 6.1 | 10.4 | 0.00 | 0.00 | 0.00 | 37 | 1018.3 |
| 20260906083547 | 90 | 280 | 5.2 | 8.7 | 0.00 | 0.00 | 0.00 | 37 | 1018.3 |
| 20260906082526 | 89 | 296 | 5.2 | 8.7 | 0.00 | 0.00 | 0.00 | 37 | 1018.3 |
| 20260906081525 | 89 | 311 | 6.1 | 7.8 | 0.00 | 0.00 | 0.00 | 37 | 1018.3 |
| 20260906080526 | 88 | 321 | 5.2 | 9.6 | 0.00 | 0.00 | 0.00 | 38 | 1018.3 |
| 20260906075525 | 88 | 328 | 6.1 | 10.4 | 0.00 | 0.00 | 0.00 | 38 | 1018.3 |
| 20260906074545 | 86 | 315 | 6.1 | 10.4 | 0.00 | 0.00 | 0.00 | 40 | 1018.3 |
| 20260906073526 | 84 | 331 | 3.5 | 7.8 | 0.00 | 0.00 | 0.00 | 45 | 1018.3 |
| 20260906072525 | 82 | 301 | 3.5 | 6.1 | 0.00 | 0.00 | 0.00 | 53 | 1018.3 |
| 20260906071525 | 81 | 300 | 3.5 | 7.8 | 0.00 | 0.00 | 0.00 | 55 | 1018.2 |
| 20260906070525 | 80 | 282 | 3.5 | 6.1 | 0.00 | 0.00 | 0.00 | 56 | 1018.2 |
| 20260906065525 | 79 | 280 | 3.5 | 6.1 | 0.00 | 0.00 | 0.00 | 58 | 1018.1 |
| 20260906064545 | 78 | 279 | 3.5 | 6.1 | 0.00 | 0.00 | 0.00 | 62 | 1017.9 |
| 20260906063525 | 77 | 279 | 3.5 | 7.8 | 0.00 | 0.00 | 0.00 | 65 | 1017.9 |
| 20260906062525 | 77 | 280 | 3.5 | 5.2 | 0.00 | 0.00 | 0.00 | 67 | 1017.9 |
| 20260906061557 | 75 | 340 | 0.9 | 3.5 | 0.00 | 0.00 | 0.00 | 68 | 1017.8 |
| 20260906060525 | 74 | 275 | 1.7 | 5.2 | 0.00 | 0.00 | 0.00 | 71 | 1017.7 |
| 20260906055525 | 74 | 296 | 2.6 | 5.2 | 0.00 | 0.00 | 0.00 | 72 | 1017.8 |
| 20260906054546 | 73 | 286 | 2.6 | 3.5 | 0.00 | 0.00 | 0.00 | 74 | 1017.8 |
| 20260906053525 | 73 | 270 | 2.6 | 5.2 | 0.00 | 0.00 | 0.00 | 76 | 1017.7 |
| 20260906052525 | 72 | 280 | 4.3 | 6.1 | 0.00 | 0.00 | 0.00 | 75 | 1017.7 |
| 20260906051525 | 70 | 202 | 0.9 | 1.7 | 0.00 | 0.00 | 0.00 | 73 | 1017.5 |
| 20260906050525 | 68 | 202 | 0.9 | 1.7 | 0.00 | 0.00 | 0.00 | 77 | 1017.5 |
| 20260906045525 | 67 | 202 | 3.5 | 3.5 | 0.00 | 0.00 | 0.00 | 78 | 1017.3 |
| 20260906044525 | 66 | 225 | 3.5 | 3.5 | 0.00 | 0.00 | 0.00 | 79 | 1017.2 |
| 20260906043525 | 65 | 206 | 3.5 | 3.5 | 0.00 | 0.00 | 0.00 | 79 | 1017.1 |
| 20260906042524 | 64 | 180 | 2.6 | 3.5 | 0.00 | 0.00 | 0.00 | 79 | 1017.0 |
| 20260906041525 | 65 | 180 | 1.7 | 3.5 | 0.00 | 0.00 | 0.00 | 77 | 1016.9 |
| 20260906040525 | 65 | 202 | 1.7 | 2.6 | 0.00 | 0.00 | 0.00 | 74 | 1016.9 |
| 20260906035524 | 65 | 202 | 3.5 | 3.5 | 0.00 | 0.00 | 0.00 | 73 | 1016.8 |
| 20260906034525 | 65 | 202 | 3.5 | 3.5 | 0.00 | 0.00 | 0.00 | 71 | 1016.6 |
| 20260906033544 | 66 | 202 | 2.6 | 3.5 | 0.00 | 0.00 | 0.00 | 69 | 1016.6 |
| 20260906032524 | 66 | 192 | 2.6 | 3.5 | 0.00 | 0.00 | 0.00 | 66 | 1016.5 |
| 20260906031526 | 66 | 202 | 4.3 | 5.2 | 0.00 | 0.00 | 0.00 | 65 | 1016.6 |
| 20260906030544 | 67 | 192 | 3.5 | 4.3 | 0.00 | 0.00 | 0.00 | 63 | 1016.5 |
| 20260906025525 | 67 | 211 | 3.5 | 5.2 | 0.00 | 0.00 | 0.00 | 62 | 1016.5 |
| 20260906024524 | 67 | 202 | 4.3 | 6.1 | 0.00 | 0.00 | 0.00 | 61 | 1016.4 |
| 20260906023544 | 67 | 202 | 4.3 | 4.3 | 0.00 | 0.00 | 0.00 | 61 | 1016.4 |
| 20260906022524 | 66 | 202 | 5.2 | 6.1 | 0.00 | 0.00 | 0.00 | 61 | 1016.3 |
| 20260906021544 | 65 | 204 | 4.3 | 6.1 | 0.00 | 0.00 | 0.00 | 63 | 1016.3 |
| 20260906020524 | 66 | 180 | 3.5 | 3.5 | 0.00 | 0.00 | 0.00 | 64 | 1016.3 |
| 20260906015526 | 67 | 102 | 0.9 | 1.7 | 0.00 | 0.00 | 0.00 | 63 | 1016.3 |
| 20260906014524 | 68 | 102 | 0.0 | 0.9 | 0.00 | 0.00 | 0.00 | 60 | 1016.4 |
| 20260906013523 | 68 | 225 | 2.6 | 5.2 | 0.00 | 0.00 | 0.00 | 59 | 1016.2 |
| 20260906012524 | 68 | 225 | 3.5 | 3.5 | 0.00 | 0.00 | 0.00 | 58 | 1016.2 |
| 20260906011524 | 68 | 197 | 4.3 | 5.2 | 0.00 | 0.00 | 0.00 | 59 | 1016.2 |
| 20260906010525 | 68 | 200 | 3.5 | 5.2 | 0.00 | 0.00 | 0.00 | 60 | 1016.2 |
| 20260906005544 | 68 | 202 | 3.5 | 3.5 | 0.00 | 0.00 | 0.00 | 59 | 1016.3 |
| 20260906004544 | 68 | 202 | 2.6 | 3.5 | 0.00 | 0.00 | 0.00 | 59 | 1016.3 |
| 20260906003528 | 69 | 199 | 3.5 | 3.5 | 0.00 | 0.00 | 0.00 | 59 | 1016.3 |
| 20260906002524 | 69 | 207 | 4.3 | 5.2 | 0.00 | 0.00 | 0.00 | 59 | 1016.3 |
| 20260906001544 | 69 | 197 | 3.5 | 5.2 | 0.00 | 0.00 | 0.00 | 59 | 1016.3 |
| 20260906000523 | 69 | 198 | 3.5 | 5.2 | 0.00 | 0.00 | 0.00 | 60 | 1016.3 |
| 20260905235524 | 69 | 213 | 3.5 | 3.5 | 0.00 | 0.00 | 0.00 | 60 | 1016.3 |
| 20260905234524 | 69 | 196 | 2.6 | 3.5 | 0.00 | 0.00 | 0.00 | 60 | 1016.5 |
| 20260905233524 | 70 | 202 | 2.6 | 3.5 | 0.00 | 0.00 | 0.00 | 59 | 1016.5 |
| 20260905232524 | 70 | 202 | 1.7 | 3.5 | 0.00 | 0.00 | 0.00 | 58 | 1016.4 |
| 20260905231525 | 69 | 202 | 5.2 | 7.0 | 0.00 | 0.00 | 0.00 | 58 | 1016.5 |
| 20260905230523 | 69 | 203 | 3.5 | 5.2 | 0.00 | 0.00 | 0.00 | 60 | 1016.5 |
| 20260905225523 | 69 | 202 | 3.5 | 3.5 | 0.00 | 0.00 | 0.00 | 61 | 1016.7 |
| 20260905224524 | 70 | 202 | 2.6 | 3.5 | 0.00 | 0.00 | 0.00 | 61 | 1016.7 |
| 20260905223525 | 71 | 202 | 2.6 | 3.5 | 0.00 | 0.00 | 0.00 | 59 | 1016.6 |
| 20260905222523 | 70 | 201 | 3.5 | 5.2 | 0.00 | 0.00 | 0.00 | 59 | 1016.6 |
| 20260905221524 | 70 | 202 | 4.3 | 5.2 | 0.00 | 0.00 | 0.00 | 61 | 1016.5 |
| 20260905220524 | 70 | 199 | 3.5 | 4.3 | 0.00 | 0.00 | 0.00 | 61 | 1016.7 |
| 20260905215523 | 70 | 202 | 3.5 | 3.5 | 0.00 | 0.00 | 0.00 | 61 | 1016.7 |
| 20260905214544 | 71 | 194 | 2.6 | 3.5 | 0.00 | 0.00 | 0.00 | 61 | 1016.8 |
| 20260905213544 | 71 | 180 | 2.6 | 4.3 | 0.00 | 0.00 | 0.00 | 60 | 1016.8 |
| 20260905212524 | 71 | 202 | 3.5 | 6.1 | 0.00 | 0.00 | 0.00 | 60 | 1016.9 |
| 20260905211523 | 71 | 202 | 3.5 | 4.3 | 0.00 | 0.00 | 0.00 | 61 | 1016.9 |
| 20260905210544 | 70 | 202 | 3.5 | 4.3 | 0.00 | 0.00 | 0.00 | 60 | 1016.8 |
| 20260905205526 | 71 | 202 | 2.6 | 3.5 | 0.00 | 0.00 | 0.00 | 61 | 1017.0 |
| 20260905204544 | 71 | 202 | 1.7 | 3.5 | 0.00 | 0.00 | 0.00 | 58 | 1017.0 |
| 20260905203545 | 71 | 202 | 1.7 | 3.5 | 0.00 | 0.00 | 0.00 | 57 | 1016.9 |
| 20260905202547 | 72 | 202 | 2.6 | 3.5 | 0.00 | 0.00 | 0.00 | 55 | 1016.9 |
| 20260905201524 | 72 | 202 | 1.7 | 3.5 | 0.00 | 0.00 | 0.00 | 54 | 1016.9 |
| 20260905200523 | 72 | 202 | 2.6 | 3.5 | 0.00 | 0.00 | 0.00 | 54 | 1016.9 |
| 20260905195525 | 73 | 202 | 1.7 | 2.6 | 0.00 | 0.00 | 0.00 | 54 | 1017.0 |
| 20260905194523 | 73 | 202 | 1.7 | 3.5 | 0.00 | 0.00 | 0.00 | 54 | 1016.9 |
| 20260905193523 | 73 | 202 | 3.5 | 3.5 | 0.00 | 0.00 | 0.00 | 53 | 1017.0 |
| 20260905192525 | 74 | 202 | 3.5 | 4.3 | 0.00 | 0.00 | 0.00 | 54 | 1017.0 |
| 20260905191523 | 74 | 202 | 3.5 | 5.2 | 0.00 | 0.00 | 0.00 | 54 | 1017.1 |
| 20260905190523 | 75 | 202 | 3.5 | 3.5 | 0.00 | 0.00 | 0.00 | 53 | 1017.1 |
| 20260905185525 | 76 | 197 | 2.6 | 3.5 | 0.00 | 0.00 | 0.00 | 52 | 1016.9 |
| 20260905184544 | 77 | 193 | 2.6 | 3.5 | 0.00 | 0.00 | 0.00 | 51 | 1016.9 |
| 20260905183547 | 79 | 180 | 1.7 | 3.5 | 0.00 | 0.00 | 0.00 | 49 | 1016.8 |
| 20260905182523 | 80 | 166 | 1.7 | 3.5 | 0.00 | 0.00 | 0.00 | 46 | 1016.7 |
| 20260905181523 | 79 | 135 | 2.6 | 3.5 | 0.00 | 0.00 | 0.00 | 46 | 1016.6 |
| 20260905180543 | 78 | 118 | 3.5 | 6.1 | 0.00 | 0.00 | 0.00 | 50 | 1016.6 |
| 20260905175523 | 78 | 168 | 2.6 | 3.5 | 0.00 | 0.00 | 0.00 | 50 | 1016.4 |
| 20260905174523 | 79 | 173 | 4.3 | 6.1 | 0.00 | 0.00 | 0.00 | 49 | 1016.4 |
| 20260905173523 | 79 | 179 | 4.3 | 7.8 | 0.00 | 0.00 | 0.00 | 48 | 1016.2 |
| 20260905172523 | 80 | 183 | 4.3 | 6.1 | 0.00 | 0.00 | 0.00 | 47 | 1016.2 |
| 20260905171523 | 81 | 203 | 4.3 | 6.1 | 0.00 | 0.00 | 0.00 | 46 | 1016.2 |
| 20260905170525 | 82 | 186 | 4.3 | 7.0 | 0.00 | 0.00 | 0.00 | 45 | 1016.0 |
| 20260905165530 | 83 | 137 | 5.2 | 7.8 | 0.00 | 0.00 | 0.00 | 45 | 1016.0 |
| 20260905164522 | 84 | 183 | 5.2 | 7.8 | 0.00 | 0.00 | 0.00 | 44 | 1016.0 |
| 20260905163530 | 86 | 172 | 4.3 | 6.1 | 0.00 | 0.00 | 0.00 | 44 | 1016.0 |
| 20260905162523 | 87 | 174 | 5.2 | 7.8 | 0.00 | 0.00 | 0.00 | 44 | 1016.1 |
| 20260905161523 | 87 | 180 | 6.1 | 8.7 | 0.00 | 0.00 | 0.00 | 42 | 1016.1 |
| 20260905160522 | 88 | 160 | 5.2 | 9.6 | 0.00 | 0.00 | 0.00 | 37 | 1016.0 |
| 20260905155523 | 88 | 184 | 4.3 | 6.1 | 0.00 | 0.00 | 0.00 | 38 | 1016.0 |
| 20260905154523 | 88 | 191 | 4.3 | 7.8 | 0.00 | 0.00 | 0.00 | 41 | 1015.9 |
| 20260905153523 | 89 | 185 | 7.0 | 10.4 | 0.00 | 0.00 | 0.00 | 40 | 1015.9 |
| 20260905152525 | 89 | 186 | 7.0 | 9.6 | 0.00 | 0.00 | 0.00 | 40 | 1015.8 |
| 20260905151523 | 90 | 206 | 7.0 | 9.6 | 0.00 | 0.00 | 0.00 | 39 | 1015.9 |
| 20260905150522 | 91 | 200 | 6.1 | 9.6 | 0.00 | 0.00 | 0.00 | 40 | 1015.8 |
| 20260905145523 | 92 | 206 | 5.2 | 7.8 | 0.00 | 0.00 | 0.00 | 36 | 1015.7 |
| 20260905144523 | 93 | 241 | 3.5 | 7.8 | 0.00 | 0.00 | 0.00 | 34 | 1015.8 |
| 20260905143524 | 94 | 246 | 1.7 | 5.2 | 0.00 | 0.00 | 0.00 | 31 | 1016.0 |
| 20260905142523 | 94 | 306 | 0.0 | 3.5 | 0.00 | 0.00 | 0.00 | 31 | 1016.0 |
| 20260905141523 | 94 | 252 | 2.6 | 5.2 | 0.00 | 0.00 | 0.00 | 30 | 1016.1 |
| 20260905140523 | 94 | 292 | 3.5 | 7.8 | 0.00 | 0.00 | 0.00 | 30 | 1016.0 |
| 20260905135523 | 94 | 292 | 4.3 | 7.0 | 0.00 | 0.00 | 0.00 | 29 | 1016.1 |
| 20260905134523 | 94 | 278 | 2.6 | 6.1 | 0.00 | 0.00 | 0.00 | 30 | 1016.3 |
| 20260905133523 | 94 | 289 | 4.3 | 6.1 | 0.00 | 0.00 | 0.00 | 28 | 1016.4 |
| 20260905132522 | 94 | 283 | 4.3 | 7.8 | 0.00 | 0.00 | 0.00 | 28 | 1016.5 |
| 20260905131522 | 93 | 273 | 2.6 | 7.8 | 0.00 | 0.00 | 0.00 | 28 | 1016.6 |
| 20260905130523 | 93 | 273 | 4.3 | 7.8 | 0.00 | 0.00 | 0.00 | 28 | 1016.6 |
| 20260905125522 | 93 | 299 | 5.2 | 7.8 | 0.00 | 0.00 | 0.00 | 27 | 1016.8 |
| 20260905124522 | 93 | 279 | 4.3 | 7.8 | 0.00 | 0.00 | 0.00 | 28 | 1016.9 |
| 20260905123523 | 93 | 266 | 5.2 | 8.7 | 0.00 | 0.00 | 0.00 | 28 | 1017.0 |
| 20260905122524 | 93 | 261 | 4.3 | 7.0 | 0.00 | 0.00 | 0.00 | 28 | 1017.1 |
| 20260905121522 | 93 | 322 | 3.5 | 7.0 | 0.00 | 0.00 | 0.00 | 28 | 1017.3 |
| 20260905120542 | 93 | 275 | 3.5 | 7.8 | 0.00 | 0.00 | 0.00 | 28 | 1017.4 |
| 20260905115523 | 92 | 278 | 3.5 | 7.0 | 0.00 | 0.00 | 0.00 | 29 | 1017.5 |
| 20260905114523 | 92 | 283 | 4.3 | 9.6 | 0.00 | 0.00 | 0.00 | 31 | 1017.6 |
| 20260905113522 | 92 | 290 | 5.2 | 7.8 | 0.00 | 0.00 | 0.00 | 32 | 1017.6 |
| 20260905112522 | 92 | 278 | 4.3 | 8.7 | 0.00 | 0.00 | 0.00 | 32 | 1017.7 |
| 20260905111543 | 92 | 281 | 3.5 | 7.8 | 0.00 | 0.00 | 0.00 | 32 | 1017.8 |
| 20260905110522 | 92 | 262 | 3.5 | 7.8 | 0.00 | 0.00 | 0.00 | 33 | 1017.8 |
| 20260905105623 | 91 | 273 | 3.5 | 5.2 | 0.00 | 0.00 | 0.00 | 34 | 1017.8 |
| 20260905104523 | 91 | 267 | 4.3 | 7.8 | 0.00 | 0.00 | 0.00 | 35 | 1018.0 |
| 20260905103522 | 90 | 280 | 3.5 | 5.2 | 0.00 | 0.00 | 0.00 | 36 | 1017.9 |
| 20260905102542 | 90 | 317 | 5.2 | 7.8 | 0.00 | 0.00 | 0.00 | 37 | 1018.1 |
| 20260905101523 | 90 | 289 | 4.3 | 7.8 | 0.00 | 0.00 | 0.00 | 36 | 1018.3 |
| 20260905100523 | 89 | 323 | 4.3 | 7.8 | 0.00 | 0.00 | 0.00 | 36 | 1018.4 |